[[{"header":{"parameterUnit":"m.s-1","parameterCategory":1,"la1":30.2991,"la2":30.254,"lo1":-89.0895,"lo2":-89.0444,"dy":0.0017,"dx":0.0017,"nx":28,"ny":28,"refTime":"2024-02-07T09:00:00:Z","depth":0,"parameterNumber":2,"parameterNumberName":"U-component_of_WINDS"},"data":[0,0,0,0,0,0,0,0,0,0,0,0,0,0,0,0,0,0,0,0,0,0,0,0,0,0,0,0,0,0,0,0,0,0,0,0,0,0,0,0,0,0,0,0,0,0,0,0,0,0,0,0,0,0,0,0,0,0,-4.875,-4.875,0,-4.8816,-4.8817,-4.8818,-4.8787,-4.8786,-4.8784,-4.8783,-4.8847,-4.885,-4.8853,0,0,0,0,0,0,0,0,0,0,0,0,0,-4.8593,-4.8596,-4.8749,-4.875,-4.8751,-4.8816,-4.8817,-4.8818,-4.8788,-4.8786,-4.8784,-4.8782,-4.8846,-4.885,-4.8854,0,0,0,0,0,0,0,0,0,0,0,0,0,-4.866,-4.8597,-4.8749,-4.8744,-4.8744,-4.8816,-4.8817,-4.8818,-4.8788,-4.8786,-4.8783,-4.8781,-4.8845,-4.8849,-4.8854,-4.8934,0,0,-4.8869,-4.8871,0,0,0,0,0,0,0,0,-4.8656,-4.8666,-4.8744,-4.8745,-4.8745,-4.8791,-4.8785,-4.8857,-4.8789,-4.8771,-4.8782,-4.878,-4.883,-4.8836,-4.8854,-4.8937,-4.8939,-4.8869,-4.8872,-4.8874,-4.8876,0,0,0,0,0,0,0,-4.8652,-4.8663,-4.8776,-4.8745,-4.8746,-4.8737,-4.8744,-4.8799,-4.8814,-4.8773,-4.8771,-4.8779,-4.883,-4.8849,-4.8855,-4.894,-4.8869,-4.8874,-4.8877,-4.8878,-4.9091,-4.9094,0,0,0,0,0,0,-4.8648,-4.8659,-4.8774,-4.8778,-4.8694,-4.8742,-4.875,-4.8779,-4.8813,-4.8816,-4.8781,-4.8777,-4.8842,-4.8849,-4.8857,-4.8952,-4.8874,-4.8879,-4.8882,-4.9089,-4.9092,-4.9095,0,0,0,0,0,0,-4.8645,-4.8658,-4.8771,-4.8718,-4.8732,-4.8747,-4.878,-4.8781,-4.88,-4.8819,-4.8822,-4.8798,-4.884,-4.885,-4.8915,-4.8954,-4.8881,-4.8886,-4.9085,-4.909,-4.9093,-4.9142,0,0,0,0,0,0,-4.864,-4.8657,-4.8688,-4.8719,-4.8735,-4.8829,-4.8783,-4.8784,-4.8809,-4.8805,-4.8836,-4.8839,-4.8839,-4.8908,-4.892,-4.8959,-4.8889,-4.9082,-4.9087,-4.9092,-4.9137,-4.9147,-4.9156,0,0,0,0,0,-4.8635,-4.8699,-4.869,-4.8704,-4.8774,-4.8831,-4.884,-4.884,-4.8813,-4.8843,-4.8856,-4.8838,-4.8948,-4.8915,-4.8928,-4.8969,-4.9079,-4.9086,-4.9092,-4.9133,-4.9145,-4.9156,0,0,0,0,0,0,-4.867,-4.8702,-4.8693,-4.8769,-4.8798,-4.8826,-4.8864,-4.8853,-4.8889,-4.8883,-4.8881,-4.8888,-4.8955,-4.8969,-4.8931,-4.9048,-4.9009,-4.9018,-4.9036,-4.9048,-4.9057,-4.9052,-4.8893,0,0,0,0,0,-4.8687,-4.8732,-4.8757,-4.8822,-4.8837,-4.8848,-4.8873,-4.8871,-4.89,-4.8911,-4.8928,-4.8956,-4.8997,-4.9023,-4.9062,-4.914,-4.9145,-4.9175,-4.9184,-4.9192,-4.9199,-4.924,-4.9253,-4.9115,-4.9115,-4.9115,0,0,-4.8722,-4.8745,-4.8773,-4.8829,-4.8851,-4.8896,-4.8858,-4.8908,-4.8941,-4.8918,-4.898,-4.8994,-4.9025,-4.9096,-4.9129,-4.911,-4.9239,-4.92,-4.9206,-4.9209,-4.9248,-4.9261,-4.9273,-4.9119,-4.9118,-4.9118,0,0,-4.8808,-4.8831,-4.8887,-4.891,-4.8944,-4.8952,-4.8965,-4.8996,-4.9004,-4.9067,-4.9051,-4.909,-4.9161,-4.9183,-4.9204,-4.9301,-4.9285,-4.9313,-4.9362,-4.9402,-4.9413,-4.9423,-4.9456,-4.9468,-4.9321,-4.9321,-4.9321,0,-4.8846,-4.8915,-4.8917,-4.8968,-4.8992,-4.8976,-4.9032,-4.9054,-4.9099,-4.9116,-4.9095,-4.9183,-4.9203,-4.9279,-4.9303,-4.9321,-4.9335,-4.9308,-4.9412,-4.9422,-4.943,-4.9462,-4.9475,-4.9324,-4.9324,-4.9323,-4.9323,0,-4.896,-4.9008,-4.9049,-4.9094,-4.9123,-4.9177,-4.9185,-4.9215,-4.9211,-4.9221,-4.9285,-4.9308,-4.9351,-4.9369,-4.9365,-4.9445,-4.9432,-4.9412,-4.9373,-4.9447,-4.9476,-4.9488,-4.9328,-4.9327,-4.9326,-4.9326,0,0,-4.9068,-4.9115,-4.913,-4.915,-4.9187,-4.9223,-4.9276,-4.932,-4.9344,-4.9376,-4.9419,-4.948,-4.9462,-4.9485,-4.9484,-4.952,-4.9593,-4.9495,-4.9495,-4.9511,-4.9682,-4.9695,-4.9709,-4.9585,-4.9587,-4.9589,-4.9678,0,-4.9156,-4.9249,-4.9252,-4.9337,-4.938,-4.9366,-4.9412,-4.9439,-4.945,-4.9488,-4.9499,-4.9542,-4.9515,-4.9529,-4.9565,-4.9577,-4.9627,-4.9571,-4.9623,-4.9625,-4.9614,-4.9725,-4.974,-4.9823,-4.969,-4.9692,-4.9694,0,-4.927,-4.9307,-4.9396,-4.9427,-4.9446,-4.9487,-4.9527,-4.9564,-4.9595,-4.96,-4.9627,-4.9621,-4.9674,-4.9635,-4.9707,-4.9668,-4.969,-4.97,-4.9703,-4.9706,-4.9662,-4.9729,-4.985,-4.9862,-4.9712,-4.9711,-4.9709,0,-4.9338,-4.941,-4.9473,-4.9491,-4.9529,-4.9558,-4.9575,-4.9604,-4.963,-4.9665,-4.9682,-4.9722,-4.9744,-4.9775,-4.978,-4.9751,-4.9851,-4.9813,-4.9856,-4.9856,-4.9876,-4.9874,-5.0,-4.9893,-4.9893,-4.9893,-4.9892,0,-4.9435,-4.9489,-4.9504,-4.9542,-4.9603,-4.9606,-4.9666,-4.9681,-4.9707,-4.9747,-4.9738,-4.9775,-4.978,-4.9818,-4.9822,-4.9881,-4.9891,-4.9896,-4.9896,-4.9896,-4.9895,-4.9908,-4.9902,-4.9896,-4.9895,-4.9895,-4.9894,0,-4.952,-4.9532,-4.9599,-4.9631,-4.964,-4.9684,-4.971,-4.9746,-4.9757,-4.9808,-4.982,-4.9836,-4.9881,-4.989,-4.9943,-4.9945,-5.0015,-5.001,-5.0004,-5.0003,-5.0045,-5.004,-5.0182,-5.02,-5.0083,-5.0085,-5.0085,0,-4.958,-4.9622,-4.9659,-4.9686,-4.9705,-4.9748,-4.9775,-4.9781,-4.9809,-4.9848,-4.9879,-4.9923,-4.9959,-5.0032,-5.0047,-5.0088,-5.0083,-5.013,-5.0089,-5.0087,-5.0082,-5.0079,-5.0082,-5.0137,-5.0138,-5.0139,-5.014,0,-4.9684,-4.9689,-4.9729,-4.9771,-4.9804,-4.9837,-4.9869,-4.9891,-4.9901,-4.9933,-4.998,-5.0008,-5.0063,-5.0106,-5.0147,-5.0163,-5.0153,-5.0153,-5.0165,-5.0164,-5.0159,-5.0161,-5.0024,-5.0149,-5.0148,-5.0148,-5.0147,-5.0147,-4.9758,-4.9794,-4.9826,-4.9871,-4.9896,-4.9926,-4.9961,-4.9977,-5.0017,-5.0062,-5.0063,-5.0114,-5.0144,-5.0198,-5.0217,-5.0256,-5.0241,-5.0259,-5.0263,-5.0267,-5.027,-5.0155,-5.0264,-5.0264,-5.0264,-5.0263,-5.0263,0,-4.986,-4.9881,-4.9922,-4.9967,-5.0002,-4.9992,-5.0026,-5.0056,-5.0101,-5.0131,-5.0167,-5.022,-5.0263,-5.0283,-5.0325,-5.0353,-5.0349,-5.0364,-5.0361,-5.0365,-5.0282,-5.0267,-5.0366,-5.0366,-5.0366,-5.0366,-5.0366,-5.0366,-4.9918,-4.9979,-4.9987,-5.006,-5.008,-5.0131,-5.0151,-5.0179,-5.0202,-5.0263,-5.0299,-5.0313,-5.0338,-5.0382,-5.0421,-5.0425,-5.0441,-5.0457,-5.0459,-5.0381,-5.037,-5.036,-5.0346,-5.0461,-5.0461,-5.0539,-5.054,-5.054]},{"header":{"parameterUnit":"m.s-1","parameterCategory":1,"la1":30.2991,"la2":30.254,"lo1":-89.0895,"lo2":-89.0444,"dy":0.0017,"dx":0.0017,"nx":28,"ny":28,"refTime":"2024-02-07T09:00:00:Z","depth":0,"parameterNumber":3,"parameterNumberName":"V-component_of_WINDS"},"data":[0,0,0,0,0,0,0,0,0,0,0,0,0,0,0,0,0,0,0,0,0,0,0,0,0,0,0,0,0,0,0,0,0,0,0,0,0,0,0,0,0,0,0,0,0,0,0,0,0,0,0,0,0,0,0,0,0,0,2.625,2.6251,0,2.6316,2.6316,2.6317,2.6332,2.6332,2.6331,2.6331,2.6395,2.6397,2.64,0,0,0,0,0,0,0,0,0,0,0,0,0,2.6136,2.6138,2.625,2.6251,2.6252,2.6316,2.6316,2.6317,2.6332,2.6332,2.6331,2.6331,2.6395,2.6397,2.64,0,0,0,0,0,0,0,0,0,0,0,0,0,2.6192,2.6139,2.625,2.6267,2.6269,2.6315,2.6316,2.6318,2.6332,2.6332,2.6331,2.633,2.6394,2.6397,2.64,2.6433,0,0,2.641,2.6411,0,0,0,0,0,0,0,0,2.6189,2.6196,2.6263,2.6266,2.6268,2.6315,2.63,2.6356,2.6332,2.6308,2.6331,2.633,2.6369,2.6374,2.6388,2.6436,2.6439,2.641,2.6412,2.6414,2.6414,0,0,0,0,0,0,0,2.6185,2.6194,2.6276,2.6264,2.6267,2.6271,2.6278,2.6311,2.6341,2.631,2.6311,2.6319,2.637,2.6385,2.639,2.644,2.641,2.6413,2.6415,2.6416,2.6522,2.6523,0,0,0,0,0,0,2.6179,2.619,2.6274,2.6278,2.6226,2.6273,2.6281,2.6301,2.6341,2.6347,2.632,2.632,2.638,2.6386,2.6392,2.6436,2.6414,2.6417,2.6418,2.6521,2.6522,2.6523,0,0,0,0,0,0,2.6176,2.6186,2.6271,2.6234,2.6246,2.6276,2.6298,2.6302,2.6317,2.6348,2.6354,2.6329,2.6379,2.6387,2.6424,2.6438,2.6418,2.6421,2.652,2.6521,2.6523,2.6522,0,0,0,0,0,0,2.6173,2.6185,2.6198,2.6235,2.6248,2.6302,2.6298,2.6304,2.6323,2.6323,2.6359,2.6364,2.6379,2.6419,2.6427,2.6442,2.6423,2.6519,2.6521,2.6522,2.6521,2.6523,2.6525,0,0,0,0,0,2.6169,2.6194,2.6198,2.6208,2.6265,2.6303,2.631,2.6328,2.6324,2.6337,2.6358,2.6363,2.6435,2.6423,2.6432,2.6448,2.6518,2.652,2.6522,2.652,2.6522,2.6525,0,0,0,0,0,0,2.6156,2.6199,2.6204,2.6242,2.6269,2.6305,2.6323,2.633,2.6358,2.6357,2.6378,2.6386,2.6421,2.6438,2.6423,2.6483,2.6476,2.648,2.6471,2.6474,2.6476,2.6472,2.6426,0,0,0,0,0,2.6158,2.6186,2.6222,2.6252,2.6265,2.6292,2.6309,2.6321,2.6349,2.636,2.6383,2.641,2.6439,2.6457,2.6485,2.6523,2.6532,2.6539,2.6541,2.6542,2.6546,2.6569,2.6573,2.653,2.653,2.653,0,0,2.6162,2.6189,2.6205,2.625,2.6272,2.6301,2.6301,2.6331,2.6353,2.6364,2.6401,2.6419,2.645,2.6488,2.6506,2.6503,2.656,2.6545,2.6546,2.6548,2.6571,2.6575,2.6579,2.6531,2.6531,2.653,0,0,2.6184,2.6207,2.6236,2.6258,2.6292,2.631,2.6317,2.6353,2.6366,2.6403,2.6414,2.6439,2.6488,2.6511,2.6528,2.6561,2.6568,2.657,2.6581,2.6603,2.6607,2.661,2.6623,2.6628,2.6573,2.6573,2.6573,0,2.6185,2.6229,2.6249,2.628,2.63,2.6313,2.6343,2.6364,2.6405,2.6418,2.6415,2.6478,2.65,2.6544,2.6553,2.6566,2.6575,2.6566,2.6605,2.6608,2.6611,2.6624,2.6629,2.6573,2.6573,2.6573,2.6573,0,2.6229,2.6259,2.6278,2.632,2.6342,2.6371,2.6396,2.6416,2.6427,2.6445,2.6484,2.651,2.6545,2.6557,2.6566,2.6603,2.6601,2.66,2.6594,2.6615,2.6628,2.6633,2.6573,2.6573,2.6573,2.6573,0,0,2.6244,2.6298,2.6304,2.6324,2.6364,2.6388,2.6419,2.6454,2.6472,2.65,2.6527,2.6569,2.657,2.6591,2.6603,2.6622,2.665,2.662,2.6622,2.6626,2.6694,2.6694,2.67,2.6654,2.6655,2.6655,2.6692,0,2.6272,2.6329,2.6349,2.6395,2.6425,2.6439,2.6466,2.6493,2.6512,2.6539,2.6559,2.659,2.6588,2.66,2.662,2.6642,2.6663,2.6639,2.6679,2.6681,2.6673,2.6706,2.6707,2.6739,2.6697,2.6697,2.6698,0,2.6312,2.6343,2.6393,2.6431,2.6444,2.6468,2.6504,2.653,2.6562,2.6574,2.6598,2.6609,2.6642,2.6634,2.668,2.6664,2.6681,2.6695,2.6696,2.6702,2.6691,2.6714,2.675,2.6756,2.6706,2.6705,2.6705,0,2.632,2.6374,2.6412,2.6428,2.6473,2.649,2.651,2.6541,2.6562,2.6592,2.6606,2.664,2.6658,2.6684,2.6705,2.6696,2.675,2.6743,2.6762,2.6762,2.6773,2.6772,2.6814,2.6782,2.6782,2.6782,2.6782,0,2.635,2.6381,2.6417,2.644,2.6475,2.6498,2.6532,2.6552,2.658,2.6607,2.6621,2.6646,2.6672,2.6701,2.6717,2.6754,2.6762,2.6773,2.6777,2.6773,2.6772,2.6785,2.6784,2.6783,2.6783,2.6783,2.6783,0,2.6366,2.6391,2.6433,2.6473,2.6484,2.6508,2.6542,2.6566,2.6585,2.662,2.6629,2.666,2.6695,2.6718,2.6762,2.6773,2.6815,2.6817,2.6804,2.6807,2.6825,2.6824,2.6879,2.6888,2.6848,2.6848,2.6849,0,2.6384,2.6408,2.6451,2.6471,2.6492,2.6523,2.6545,2.6569,2.6591,2.6631,2.665,2.6686,2.6716,2.6772,2.6797,2.6832,2.6837,2.6853,2.6842,2.6837,2.6839,2.6838,2.6841,2.6855,2.6856,2.6856,2.6856,0,2.6414,2.6426,2.6457,2.6494,2.652,2.655,2.658,2.6595,2.6624,2.6649,2.6686,2.6709,2.6756,2.6792,2.683,2.6849,2.6858,2.686,2.6866,2.6863,2.6855,2.6861,2.6811,2.6858,2.6858,2.6858,2.6858,2.6858,2.6432,2.6455,2.649,2.6525,2.6551,2.6579,2.6604,2.6627,2.6659,2.6699,2.6711,2.675,2.6783,2.6834,2.6855,2.6886,2.6884,2.6893,2.6895,2.6898,2.6899,2.6849,2.6892,2.6892,2.6892,2.6892,2.6892,0,2.6464,2.6488,2.652,2.6563,2.6591,2.6598,2.6632,2.6655,2.6689,2.672,2.675,2.6793,2.6829,2.6859,2.6896,2.6915,2.692,2.6924,2.6924,2.6928,2.6897,2.6889,2.692,2.692,2.692,2.692,2.692,2.692,2.6484,2.6525,2.6541,2.6594,2.6618,2.6657,2.6676,2.6702,2.6727,2.6775,2.6806,2.6825,2.6856,2.6896,2.6929,2.6937,2.6951,2.6954,2.6963,2.6933,2.693,2.6927,2.692,2.6956,2.6956,2.6992,2.6992,2.6992]}]]